86261 UUMU-XLMO

Flight info

Callsign 86261
Flight time N/A
Altitude FL320
Route K0700F320 RILPO T753 DEGOP T747 MOVIT PILAN T693 OLADA
Aircraft IL76

Departure

Time 2026-04-27 11:57
Airport Chkalovskiy Air Base (UUMU)

Arrival

Time N/A
Airport XLMO
Time Latitude Longitude Altitude Speed Heading
2026-04-27 11:33 55.88472 38.04020 503 ft 0 kts 102°
2026-04-27 11:38 55.88472 38.04021 503 ft 0 kts 102°
2026-04-27 11:40 55.88472 38.04022 503 ft 0 kts 102°
2026-04-27 11:41 55.88472 38.04023 503 ft 0 kts 102°
2026-04-27 11:42 55.88472 38.04024 503 ft 0 kts 102°
2026-04-27 11:43 55.88472 38.04025 503 ft 0 kts 102°
2026-04-27 11:44 55.88472 38.04026 503 ft 0 kts 102°
2026-04-27 11:44 55.88471 38.04026 503 ft 0 kts 102°
2026-04-27 11:44 55.88470 38.04037 503 ft 3 kts 100°
2026-04-27 11:45 55.88476 38.04070 503 ft 3 kts 54°
2026-04-27 11:45 55.88499 38.04097 503 ft 5 kts 22°
2026-04-27 11:45 55.88546 38.04116 503 ft 8 kts 11°
2026-04-27 11:45 55.88597 38.04135 503 ft 7 kts 11°
2026-04-27 11:46 55.88643 38.04154 503 ft 8 kts 25°
2026-04-27 11:46 55.88644 38.04250 503 ft 10 kts 130°
2026-04-27 11:46 55.88594 38.04350 503 ft 12 kts 131°
2026-04-27 11:46 55.88537 38.04465 503 ft 13 kts 130°
2026-04-27 11:47 55.88476 38.04592 503 ft 15 kts 129°
2026-04-27 11:47 55.88405 38.04743 503 ft 16 kts 133°
2026-04-27 11:47 55.88326 38.04903 503 ft 18 kts 130°
2026-04-27 11:47 55.88242 38.05082 503 ft 20 kts 130°
2026-04-27 11:48 55.88149 38.05275 503 ft 21 kts 130°
2026-04-27 11:48 55.88048 38.05486 503 ft 23 kts 129°
2026-04-27 11:48 55.87942 38.05713 503 ft 25 kts 130°
2026-04-27 11:48 55.87828 38.05955 503 ft 26 kts 130°
2026-04-27 11:49 55.87706 38.06209 503 ft 28 kts 131°
2026-04-27 11:49 55.87579 38.06476 503 ft 29 kts 130°
2026-04-27 11:49 55.87453 38.06738 503 ft 27 kts 130°
2026-04-27 11:49 55.87366 38.06924 503 ft 26 kts 130°
2026-04-27 11:50 55.87225 38.07217 503 ft 18 kts 131°
2026-04-27 11:50 55.87205 38.07328 503 ft 6 kts 42°
2026-04-27 11:50 55.87245 38.07347 503 ft 7 kts
2026-04-27 11:50 55.87298 38.07356 503 ft 9 kts
2026-04-27 11:51 55.87357 38.07363 503 ft 8 kts
2026-04-27 11:51 55.87406 38.07369 503 ft 6 kts
2026-04-27 11:51 55.87509 38.07373 503 ft 7 kts 345°
2026-04-27 11:52 55.87551 38.07321 503 ft 8 kts 311°
2026-04-27 11:52 55.87559 38.07304 503 ft 0 kts 311°
2026-04-27 11:52 55.87560 38.07304 503 ft 0 kts 311°
2026-04-27 11:52 55.87560 38.07303 503 ft 0 kts 311°
2026-04-27 11:53 55.87560 38.07302 503 ft 0 kts 311°
2026-04-27 11:54 55.87561 38.07301 503 ft 0 kts 311°
2026-04-27 11:54 55.87561 38.07300 503 ft 0 kts 311°
2026-04-27 11:54 55.87562 38.07299 503 ft 0 kts 311°
2026-04-27 11:54 55.87567 38.07288 503 ft 10 kts 311°
2026-04-27 11:55 55.87719 38.06969 503 ft 57 kts 309°
2026-04-27 11:55 55.88068 38.06243 503 ft 97 kts 308°
2026-04-27 11:55 55.88570 38.05179 520 ft 124 kts 303°
2026-04-27 11:55 55.88732 38.04831 564 ft 126 kts 304°
2026-04-27 11:56 55.89028 38.04194 660 ft 128 kts 304°
2026-04-27 11:56 55.89479 38.03198 795 ft 134 kts 303°
2026-04-27 11:56 55.90054 38.01821 932 ft 144 kts 302°
2026-04-27 11:57 55.90669 38.00306 1060 ft 162 kts 301°
2026-04-27 11:57 55.91409 37.98545 1247 ft 193 kts 306°
2026-04-27 11:57 55.92532 37.96964 1528 ft 224 kts 323°
2026-04-27 11:57 55.94143 37.96180 1893 ft 256 kts 347°
2026-04-27 11:58 55.95967 37.96657 2630 ft 274 kts
2026-04-27 11:58 55.97619 37.98422 3552 ft 285 kts 30°
2026-04-27 11:58 55.98986 38.01048 4387 ft 290 kts 39°
2026-04-27 11:58 56.00273 38.03639 5218 ft 283 kts 39°
2026-04-27 11:59 56.01708 38.06040 5592 ft 284 kts 24°
2026-04-27 11:59 56.03506 38.07295 5900 ft 275 kts 359°
2026-04-27 11:59 56.05357 38.07283 6534 ft 261 kts 344°
2026-04-27 11:59 56.07101 38.06644 7254 ft 252 kts 336°
2026-04-27 12:00 56.08704 38.05773 7809 ft 252 kts 334°
2026-04-27 12:00 56.10345 38.04627 8296 ft 253 kts 329°
2026-04-27 12:00 56.11955 38.03339 8791 ft 257 kts 330°
2026-04-27 12:00 56.13651 38.02285 9362 ft 259 kts 335°
2026-04-27 12:01 56.15396 38.01420 9881 ft 262 kts 337°
2026-04-27 12:01 56.17166 38.00638 10340 ft 265 kts 338°
2026-04-27 12:01 56.18961 37.99880 10809 ft 266 kts 338°
2026-04-27 12:01 56.20770 37.99100 11276 ft 267 kts 338°
2026-04-27 12:02 56.22578 37.98309 11730 ft 268 kts 338°
2026-04-27 12:02 56.24394 37.97512 12172 ft 269 kts 338°
2026-04-27 12:02 56.26213 37.96713 12594 ft 270 kts 338°
2026-04-27 12:02 56.28041 37.95901 12969 ft 273 kts 341°
2026-04-27 12:03 56.29897 37.95049 13220 ft 279 kts 343°
2026-04-27 12:03 56.31790 37.94158 13463 ft 285 kts 343°
2026-04-27 12:03 56.33722 37.93241 13847 ft 286 kts 343°
2026-04-27 12:03 56.35602 37.92351 14208 ft 287 kts 343°
2026-04-27 12:04 56.37582 37.91422 14558 ft 289 kts 343°
2026-04-27 12:04 56.39552 37.90661 14879 ft 292 kts 349°
2026-04-27 12:04 56.41587 37.90468 15261 ft 294 kts 356°
2026-04-27 12:04 56.43638 37.90585 15561 ft 297 kts 359°
2026-04-27 12:05 56.45695 37.90864 15842 ft 300 kts
2026-04-27 12:05 56.47796 37.91228 16136 ft 303 kts
2026-04-27 12:05 56.49900 37.91610 16427 ft 304 kts
2026-04-27 12:05 56.52003 37.91984 16712 ft 306 kts
2026-04-27 12:06 56.54128 37.92363 16999 ft 308 kts
2026-04-27 12:06 56.56262 37.92747 17280 ft 309 kts
2026-04-27 12:06 56.58409 37.93107 17554 ft 311 kts
2026-04-27 12:06 56.60556 37.93456 17825 ft 312 kts
2026-04-27 12:07 56.62722 37.93801 18086 ft 313 kts 360°
2026-04-27 12:07 56.64898 37.94119 18338 ft 315 kts 359°
2026-04-27 12:07 56.67076 37.94452 18589 ft 317 kts
2026-04-27 12:07 56.69206 37.95663 18888 ft 325 kts 21°
2026-04-27 12:08 56.71125 37.97849 19233 ft 329 kts 30°
2026-04-27 12:08 56.72925 38.00523 19328 ft 338 kts 36°
2026-04-27 12:08 56.74651 38.03469 19482 ft 343 kts 38°
2026-04-27 12:08 56.76338 38.06569 19693 ft 346 kts 41°
2026-04-27 12:09 56.77993 38.09719 20068 ft 342 kts 43°
2026-04-27 12:09 56.79600 38.12846 20563 ft 334 kts 43°
2026-04-27 12:09 56.81184 38.15911 20848 ft 333 kts 43°
2026-04-27 12:09 56.82790 38.18975 21006 ft 335 kts 42°
2026-04-27 12:10 56.84422 38.22022 21188 ft 337 kts 41°
2026-04-27 12:10 56.86078 38.25041 21378 ft 337 kts 41°
2026-04-27 12:10 56.87772 38.28015 21511 ft 340 kts 39°
2026-04-27 12:10 56.89535 38.30939 21558 ft 344 kts 38°
2026-04-27 12:11 56.91336 38.33835 21736 ft 345 kts 38°
2026-04-27 12:11 56.93150 38.36713 21926 ft 345 kts 37°
2026-04-27 12:11 56.93691 38.37567 21977 ft 346 kts 37°
2026-04-27 12:11 56.96788 38.42432 22255 ft 347 kts 37°
2026-04-27 12:12 56.98637 38.45324 22418 ft 348 kts 37°
2026-04-27 12:12 57.00484 38.48208 22577 ft 349 kts 37°
2026-04-27 12:12 57.02330 38.51084 22731 ft 350 kts 37°
2026-04-27 12:12 57.04185 38.53969 22881 ft 351 kts 37°
2026-04-27 12:13 57.06057 38.56876 23030 ft 352 kts 37°
2026-04-27 12:13 57.07933 38.59788 23177 ft 354 kts 37°
2026-04-27 12:13 57.09813 38.62707 23325 ft 355 kts 38°
2026-04-27 12:13 57.11697 38.65649 23474 ft 356 kts 38°
2026-04-27 12:14 57.13568 38.68603 23621 ft 357 kts 38°
2026-04-27 12:14 57.15449 38.71591 23764 ft 358 kts 38°
2026-04-27 12:14 57.17334 38.74592 23905 ft 359 kts 38°
2026-04-27 12:14 57.19228 38.77606 24033 ft 360 kts 39°
2026-04-27 12:15 57.21140 38.80641 24060 ft 365 kts 39°
2026-04-27 12:15 57.23066 38.83698 24124 ft 368 kts 39°
2026-04-27 12:15 57.25006 38.86801 24271 ft 369 kts 39°
2026-04-27 12:15 57.26935 38.89898 24417 ft 369 kts 40°
2026-04-27 12:16 57.28867 38.92989 24622 ft 368 kts 40°
2026-04-27 12:16 57.30807 38.96084 24832 ft 367 kts 40°
2026-04-27 12:16 57.32736 38.99169 25049 ft 365 kts 40°
2026-04-27 12:16 57.34638 39.02236 25240 ft 365 kts 41°
2026-04-27 12:17 57.36556 39.05323 25405 ft 365 kts 41°
2026-04-27 12:17 57.38467 39.08414 25546 ft 365 kts 41°
2026-04-27 12:17 57.40378 39.11530 25671 ft 367 kts 41°
2026-04-27 12:17 57.42276 39.14640 25810 ft 367 kts 41°
2026-04-27 12:18 57.44199 39.17791 25926 ft 368 kts 41°
2026-04-27 12:18 57.46126 39.20906 26042 ft 370 kts 41°
2026-04-27 12:18 57.48070 39.24045 26166 ft 370 kts 41°
2026-04-27 12:18 57.50006 39.27213 26301 ft 371 kts 41°
2026-04-27 12:19 57.51823 39.30194 26407 ft 372 kts 42°
2026-04-27 12:19 57.53887 39.33574 26499 ft 374 kts 42°
2026-04-27 12:19 57.55845 39.36774 26602 ft 376 kts 42°
2026-04-27 12:19 57.57807 39.39980 26722 ft 377 kts 42°
2026-04-27 12:20 57.59785 39.43212 26839 ft 378 kts 42°
2026-04-27 12:20 57.61760 39.46441 26960 ft 378 kts 42°
2026-04-27 12:20 57.63743 39.49682 27080 ft 379 kts 42°
2026-04-27 12:20 57.65722 39.52920 27201 ft 380 kts 42°
2026-04-27 12:21 57.67704 39.56163 27323 ft 380 kts 42°
2026-04-27 12:21 57.69699 39.59430 27421 ft 381 kts 42°
2026-04-27 12:21 57.71688 39.62689 27543 ft 381 kts 42°
2026-04-27 12:21 57.73678 39.65952 27671 ft 380 kts 42°
2026-04-27 12:22 57.75647 39.69202 27790 ft 380 kts 42°
2026-04-27 12:22 57.77616 39.72502 27900 ft 379 kts 43°
2026-04-27 12:22 57.79577 39.75794 28034 ft 378 kts 43°
2026-04-27 12:22 57.81527 39.79046 28188 ft 376 kts 44°
2026-04-27 12:23 57.83483 39.82304 28319 ft 375 kts 44°
2026-04-27 12:23 57.87828 39.87620 28495 ft 380 kts 18°
2026-04-27 12:23 57.90429 39.88328 28600 ft 381 kts
2026-04-27 12:24 57.93088 39.88110 28605 ft 385 kts 355°
2026-04-27 12:24 57.98398 39.86391 28679 ft 389 kts 349°
2026-04-27 12:25 58.03670 39.84064 28803 ft 390 kts 347°
2026-04-27 12:25 58.08947 39.81608 28904 ft 392 kts 347°
2026-04-27 12:26 58.14235 39.79190 29046 ft 392 kts 348°
2026-04-27 12:26 58.18665 39.77234 29143 ft 393 kts 348°
2026-04-27 12:27 58.23994 39.74982 29318 ft 392 kts 349°
2026-04-27 12:27 58.29318 39.72858 29505 ft 390 kts 351°
2026-04-27 12:27 58.31959 39.71861 29624 ft 388 kts 351°
2026-04-27 12:28 58.34608 39.70897 29723 ft 387 kts 351°
2026-04-27 12:28 58.39875 39.68941 29880 ft 385 kts 351°
2026-04-27 12:29 58.45098 39.66919 30004 ft 383 kts 351°
2026-04-27 12:29 58.50314 39.64884 30070 ft 383 kts 350°
2026-04-27 12:30 58.55527 39.62853 30107 ft 384 kts 351°
2026-04-27 12:30 58.60761 39.60821 30146 ft 384 kts 351°
2026-04-27 12:31 58.65992 39.58802 30184 ft 384 kts 351°
2026-04-27 12:31 58.71234 39.56800 30223 ft 385 kts 351°
2026-04-27 12:32 58.76506 39.55046 30214 ft 386 kts 355°
2026-04-27 12:32 58.81850 39.54030 30187 ft 387 kts 360°
2026-04-27 12:33 58.87227 39.53305 30081 ft 391 kts
2026-04-27 12:33 58.92685 39.52627 29976 ft 395 kts
2026-04-27 12:34 58.98182 39.51853 29938 ft 399 kts 360°
2026-04-27 12:34 59.01343 39.51391 29928 ft 400 kts 360°
2026-04-27 12:35 59.08123 39.50301 29920 ft 404 kts 359°
2026-04-27 12:35 59.13709 39.49313 30055 ft 402 kts 358°
2026-04-27 12:36 59.19259 39.48293 30169 ft 401 kts 359°
2026-04-27 12:36 59.24785 39.47391 30352 ft 396 kts 359°
2026-04-27 12:37 59.30245 39.46497 30475 ft 393 kts
2026-04-27 12:37 59.35683 39.45621 30529 ft 391 kts
2026-04-27 12:38 59.41089 39.44758 30555 ft 390 kts
2026-04-27 12:38 59.46492 39.43898 30563 ft 389 kts
2026-04-27 12:39 59.51870 39.43039 30560 ft 389 kts
2026-04-27 12:39 59.57257 39.42178 30552 ft 388 kts
2026-04-27 12:40 59.62626 39.41258 30541 ft 389 kts
2026-04-27 12:40 59.68007 39.40250 30533 ft 388 kts
2026-04-27 12:41 59.73371 39.39232 30522 ft 388 kts
2026-04-27 12:41 59.78743 39.38275 30509 ft 388 kts
2026-04-27 12:42 59.84093 39.36451 30426 ft 396 kts 349°
2026-04-27 12:42 59.89321 39.32759 30384 ft 401 kts 342°
2026-04-27 12:43 59.94484 39.28628 30359 ft 400 kts 346°
2026-04-27 12:43 59.99752 39.25164 30353 ft 398 kts 348°
2026-04-27 12:44 60.05027 39.21862 30356 ft 398 kts 347°
2026-04-27 12:44 60.10289 39.18533 30373 ft 397 kts 347°
2026-04-27 12:45 60.15557 39.15184 30386 ft 397 kts 347°
2026-04-27 12:45 60.20794 39.11849 30392 ft 396 kts 347°
2026-04-27 12:46 60.26106 39.08462 30390 ft 396 kts 347°
2026-04-27 12:46 60.31391 39.05067 30220 ft 401 kts 346°
2026-04-27 12:47 60.36736 39.01549 30031 ft 408 kts 346°
2026-04-27 12:47 60.42157 38.97859 29894 ft 415 kts 345°
2026-04-27 12:47 60.44898 38.95999 29733 ft 420 kts 346°
2026-04-27 12:48 60.47695 38.94132 29612 ft 426 kts 346°
2026-04-27 12:48 60.53342 38.90285 29462 ft 428 kts 346°
2026-04-27 12:49 60.58949 38.86464 29265 ft 424 kts 346°
2026-04-27 12:49 60.61741 38.84562 29147 ft 422 kts 346°
2026-04-27 12:49 60.64519 38.82670 29048 ft 420 kts 346°
2026-04-27 12:50 60.69978 38.78977 29054 ft 409 kts 347°
2026-04-27 12:50 60.75307 38.75411 29059 ft 397 kts 347°
2026-04-27 12:51 60.80527 38.71920 29064 ft 396 kts 346°
2026-04-27 12:51 60.85793 38.68348 29076 ft 401 kts 345°
2026-04-27 12:52 60.91095 38.64645 29085 ft 405 kts 345°
2026-04-27 12:52 60.96418 38.60890 29088 ft 404 kts 345°
2026-04-27 12:53 61.04386 38.55346 29098 ft 403 kts 345°
2026-04-27 12:53 61.09152 38.52056 29101 ft 403 kts 345°
2026-04-27 12:54 61.15013 38.47968 29037 ft 405 kts 345°
2026-04-27 12:54 61.20323 38.44213 29015 ft 403 kts 345°
2026-04-27 12:55 61.25640 38.40567 29026 ft 402 kts 347°
2026-04-27 12:55 61.31045 38.37737 29045 ft 402 kts 350°
2026-04-27 12:56 61.36536 38.35197 29074 ft 406 kts 351°
2026-04-27 12:56 61.42064 38.32705 29106 ft 408 kts 351°
2026-04-27 12:57 61.47612 38.30220 29124 ft 408 kts 351°
2026-04-27 12:57 61.53131 38.27752 29130 ft 407 kts 351°
2026-04-27 12:58 61.58671 38.25273 29140 ft 407 kts 351°
2026-04-27 12:58 61.64191 38.22802 29146 ft 406 kts 351°
2026-04-27 12:59 61.69708 38.20272 29147 ft 406 kts 350°
2026-04-27 12:59 61.75192 38.17673 29199 ft 404 kts 350°
2026-04-27 13:00 61.80687 38.15064 29223 ft 405 kts 348°
2026-04-27 13:00 61.86184 38.12478 29262 ft 406 kts 348°
2026-04-27 13:01 61.91673 38.09798 29513 ft 404 kts 348°
2026-04-27 13:01 61.94416 38.08474 29619 ft 405 kts 348°
2026-04-27 13:01 61.97159 38.07162 29656 ft 408 kts 348°
2026-04-27 13:02 62.02718 38.04448 29684 ft 410 kts 348°
2026-04-27 13:02 62.08242 38.01728 29723 ft 406 kts 348°
2026-04-27 13:03 62.13743 37.99015 29768 ft 406 kts 348°
2026-04-27 13:03 62.19236 37.96306 29782 ft 406 kts 348°
2026-04-27 13:04 62.24740 37.93528 29804 ft 406 kts 347°
2026-04-27 13:04 62.30221 37.90669 29820 ft 406 kts 346°
2026-04-27 13:05 62.35725 37.87828 29826 ft 408 kts 347°
2026-04-27 13:05 62.41251 37.84985 29829 ft 410 kts 346°
2026-04-27 13:06 62.46805 37.82127 29837 ft 410 kts 346°
2026-04-27 13:06 62.52335 37.79277 29839 ft 410 kts 346°
2026-04-27 13:07 62.57879 37.76426 29839 ft 409 kts 347°
2026-04-27 13:07 62.63408 37.73569 29849 ft 409 kts 346°
2026-04-27 13:08 62.68913 37.70434 29878 ft 409 kts 343°
2026-04-27 13:08 62.74365 37.66907 29888 ft 410 kts 342°
2026-04-27 13:09 62.79815 37.63278 29953 ft 409 kts 341°
2026-04-27 13:09 62.85236 37.59651 29982 ft 410 kts 341°
2026-04-27 13:10 62.90700 37.55989 29970 ft 410 kts 341°
2026-04-27 13:10 62.96141 37.52340 29982 ft 409 kts 341°
2026-04-27 13:11 63.01585 37.48682 30001 ft 409 kts 341°
2026-04-27 13:11 63.07015 37.45031 30008 ft 409 kts 341°
2026-04-27 13:12 63.12463 37.41365 30010 ft 409 kts 341°
2026-04-27 13:12 63.17895 37.37708 30011 ft 409 kts 341°
2026-04-27 13:13 63.23346 37.34027 30011 ft 409 kts 341°
2026-04-27 13:13 63.28759 37.30231 30015 ft 409 kts 339°
2026-04-27 13:14 63.34118 37.26199 30011 ft 405 kts 338°
2026-04-27 13:14 63.39446 37.22084 29889 ft 404 kts 338°
2026-04-27 13:15 63.44522 37.18148 29885 ft 397 kts 338°
2026-04-27 13:15 63.48989 37.14677 29956 ft 397 kts 338°
2026-04-27 13:16 63.54961 37.10020 29995 ft 399 kts 338°
2026-04-27 13:16 63.60205 37.05919 30006 ft 399 kts 338°
2026-04-27 13:17 63.65447 37.01816 30009 ft 399 kts 338°
2026-04-27 13:17 63.70682 36.97719 30011 ft 400 kts 338°
2026-04-27 13:18 63.75070 36.94281 30012 ft 400 kts 338°
2026-04-27 13:18 63.80317 36.90163 30012 ft 400 kts 337°
2026-04-27 13:19 63.85571 36.86008 30012 ft 400 kts 336°
2026-04-27 13:19 63.90811 36.81774 30012 ft 400 kts 336°
2026-04-27 13:20 63.96038 36.77576 30012 ft 400 kts 336°
2026-04-27 13:20 64.01276 36.73344 30012 ft 399 kts 336°
2026-04-27 13:21 64.06496 36.69027 30012 ft 400 kts 336°
2026-04-27 13:21 64.11719 36.64686 30012 ft 400 kts 336°
2026-04-27 13:22 64.15270 36.61729 30012 ft 400 kts 336°
2026-04-27 13:22 64.22169 36.55988 30012 ft 400 kts 336°
2026-04-27 13:23 64.27401 36.51684 30012 ft 400 kts 336°
2026-04-27 13:23 64.32615 36.47378 30012 ft 397 kts 335°
2026-04-27 13:24 64.37787 36.43091 30010 ft 394 kts 335°
2026-04-27 13:24 64.42930 36.38816 30013 ft 394 kts 334°
2026-04-27 13:25 64.48069 36.34421 29919 ft 395 kts 334°
2026-04-27 13:25 64.53194 36.30034 29869 ft 391 kts 334°
2026-04-27 13:26 64.58303 36.25741 29937 ft 391 kts 334°
2026-04-27 13:26 64.63402 36.21370 29970 ft 393 kts 334°
2026-04-27 13:27 64.68356 36.16187 29995 ft 390 kts 327°
2026-04-27 13:27 64.73124 36.10224 29928 ft 389 kts 324°
2026-04-27 13:28 64.77834 36.04093 29864 ft 386 kts 323°
2026-04-27 13:28 64.82556 35.98230 29834 ft 385 kts 326°
2026-04-27 13:29 64.87303 35.92465 29834 ft 384 kts 325°
2026-04-27 13:29 64.92038 35.86608 29827 ft 386 kts 325°
2026-04-27 13:30 64.96791 35.80699 29826 ft 386 kts 325°
2026-04-27 13:30 65.01550 35.74863 29824 ft 386 kts 325°
2026-04-27 13:31 65.06228 35.68687 29826 ft 384 kts 321°
2026-04-27 13:31 65.10715 35.61881 29827 ft 384 kts 319°
2026-04-27 13:32 65.15152 35.54891 29828 ft 382 kts 319°
2026-04-27 13:32 65.19552 35.47901 29828 ft 381 kts 319°
2026-04-27 13:33 65.24002 35.41005 29829 ft 381 kts 320°
2026-04-27 13:33 65.28456 35.34203 29834 ft 381 kts 321°
2026-04-27 13:34 65.32907 35.27407 29834 ft 379 kts 321°
2026-04-27 13:34 65.37347 35.20626 29833 ft 379 kts 322°
2026-04-27 13:35 65.41769 35.13767 29835 ft 379 kts 321°
2026-04-27 13:35 65.46187 35.06859 29840 ft 380 kts 321°
2026-04-27 13:36 65.49086 35.02299 29840 ft 380 kts 321°
2026-04-27 13:36 65.55042 34.92889 29839 ft 380 kts 321°
2026-04-27 13:37 65.59464 34.85879 29842 ft 380 kts 321°
2026-04-27 13:37 65.63877 34.78875 29845 ft 380 kts 321°
2026-04-27 13:38 65.68294 34.71849 29844 ft 380 kts 321°
2026-04-27 13:38 65.72704 34.64844 29845 ft 379 kts 322°
2026-04-27 13:39 65.77112 34.57854 29848 ft 378 kts 322°
2026-04-27 13:39 65.81499 34.50889 29849 ft 376 kts 321°
2026-04-27 13:40 65.85858 34.43971 29848 ft 373 kts 322°
2026-04-27 13:40 65.90170 34.36984 29850 ft 373 kts 322°
2026-04-27 13:41 65.94466 34.29932 29852 ft 373 kts 322°
2026-04-27 13:41 65.98788 34.22915 29853 ft 372 kts 322°
2026-04-27 13:42 66.03090 34.15879 29855 ft 372 kts 322°
2026-04-27 13:42 66.07369 34.08753 29855 ft 371 kts 322°
2026-04-27 13:43 66.11625 34.01570 29852 ft 371 kts 322°
2026-04-27 13:43 66.13745 33.97959 29749 ft 373 kts 321°
2026-04-27 13:43 66.15868 33.94284 29590 ft 373 kts 321°
2026-04-27 13:44 66.17981 33.90597 29429 ft 371 kts 321°
2026-04-27 13:44 66.20077 33.86931 29225 ft 370 kts 321°
2026-04-27 13:44 66.22172 33.83268 29013 ft 368 kts 321°
2026-04-27 13:44 66.24252 33.79638 28799 ft 365 kts 321°
2026-04-27 13:45 66.26329 33.76021 28579 ft 363 kts 321°
2026-04-27 13:45 66.28394 33.72433 28357 ft 362 kts 321°
2026-04-27 13:45 66.30443 33.68873 28139 ft 360 kts 321°
2026-04-27 13:45 66.32494 33.65329 27927 ft 358 kts 322°
2026-04-27 13:46 66.34533 33.61798 27711 ft 356 kts 321°
2026-04-27 13:46 66.36553 33.58255 27492 ft 355 kts 322°
2026-04-27 13:46 66.38704 33.55259 27226 ft 357 kts 333°
2026-04-27 13:46 66.41017 33.53018 26985 ft 356 kts 338°
2026-04-27 13:47 66.43375 33.51190 26749 ft 354 kts 341°
2026-04-27 13:47 66.45743 33.49582 26520 ft 352 kts 343°
2026-04-27 13:47 66.48104 33.48075 26324 ft 351 kts 343°
2026-04-27 13:47 66.50470 33.46602 26131 ft 350 kts 343°
2026-04-27 13:48 66.52830 33.45147 25945 ft 350 kts 343°
2026-04-27 13:48 66.55181 33.43695 25764 ft 349 kts 343°
2026-04-27 13:48 66.57532 33.42203 25585 ft 348 kts 343°
2026-04-27 13:48 66.59871 33.40681 25408 ft 347 kts 343°
2026-04-27 13:49 66.62189 33.39157 25232 ft 345 kts 343°
2026-04-27 13:49 66.64509 33.37620 25056 ft 344 kts 343°
2026-04-27 13:49 66.66818 33.36080 24880 ft 343 kts 342°
2026-04-27 13:49 66.69113 33.34499 24704 ft 342 kts 342°
2026-04-27 13:50 66.71390 33.32895 24530 ft 340 kts 342°
2026-04-27 13:50 66.73665 33.31275 24356 ft 339 kts 342°
2026-04-27 13:50 66.75928 33.29653 24182 ft 338 kts 342°
2026-04-27 13:50 66.78187 33.28028 24008 ft 337 kts 342°
2026-04-27 13:51 66.80426 33.26411 23835 ft 336 kts 342°
2026-04-27 13:51 66.82663 33.24792 23663 ft 334 kts 342°
2026-04-27 13:51 66.84896 33.23170 23491 ft 333 kts 342°
2026-04-27 13:51 66.87118 33.21566 23332 ft 331 kts 343°
2026-04-27 13:52 66.89318 33.19987 23167 ft 329 kts 343°
2026-04-27 13:52 66.91512 33.18414 22962 ft 328 kts 343°
2026-04-27 13:52 66.93708 33.16836 22745 ft 327 kts 343°
2026-04-27 13:52 66.95888 33.15266 22527 ft 325 kts 343°
2026-04-27 13:53 67.00200 33.12144 22087 ft 321 kts 343°
2026-04-27 13:53 67.02340 33.10592 21869 ft 320 kts 343°
2026-04-27 13:53 67.04474 33.09049 21653 ft 318 kts 343°
2026-04-27 13:54 67.06586 33.07527 21440 ft 316 kts 343°
2026-04-27 13:54 67.08691 33.06002 21226 ft 314 kts 342°
2026-04-27 13:54 67.10782 33.04465 21012 ft 311 kts 342°
2026-04-27 13:54 67.12859 33.02949 20792 ft 310 kts 341°
2026-04-27 13:55 67.14912 33.01446 20600 ft 307 kts 342°
2026-04-27 13:55 67.16952 32.99924 20380 ft 304 kts 342°
2026-04-27 13:55 67.18979 32.98409 20158 ft 303 kts 342°
2026-04-27 13:55 67.20999 32.96910 19942 ft 302 kts 343°
2026-04-27 13:56 67.23006 32.95428 19728 ft 300 kts 343°
2026-04-27 13:56 67.25007 32.93946 19514 ft 299 kts 343°
2026-04-27 13:56 67.27000 32.92460 19299 ft 298 kts 343°
2026-04-27 13:56 67.28982 32.90972 19084 ft 296 kts 343°
2026-04-27 13:57 67.30950 32.89482 18870 ft 295 kts 343°
2026-04-27 13:57 67.32914 32.87983 18655 ft 294 kts 343°
2026-04-27 13:57 67.34871 32.86477 18441 ft 293 kts 343°
2026-04-27 13:57 67.36820 32.84965 18200 ft 293 kts 343°
2026-04-27 13:58 67.38764 32.83466 17945 ft 292 kts 343°
2026-04-27 13:58 67.40705 32.82004 17685 ft 289 kts 344°
2026-04-27 13:58 67.42629 32.80565 17409 ft 285 kts 344°
2026-04-27 13:58 67.44522 32.79118 17119 ft 282 kts 343°
2026-04-27 13:59 67.46409 32.77921 16802 ft 280 kts 351°
2026-04-27 13:59 67.48338 32.77413 16493 ft 277 kts 356°
2026-04-27 13:59 67.50257 32.77226 16196 ft 275 kts 359°
2026-04-27 13:59 67.52158 32.77157 15899 ft 272 kts 360°
2026-04-27 14:00 67.54037 32.77129 15602 ft 270 kts 360°
2026-04-27 14:00 67.55906 32.77115 15304 ft 268 kts
2026-04-27 14:00 67.57761 32.77104 15005 ft 266 kts
2026-04-27 14:00 67.59378 32.77094 14747 ft 264 kts
2026-04-27 14:01 67.61418 32.77079 14430 ft 261 kts
2026-04-27 14:01 67.63224 32.77062 14144 ft 259 kts
2026-04-27 14:01 67.65017 32.77042 13856 ft 256 kts
2026-04-27 14:01 67.66792 32.77017 13568 ft 254 kts
2026-04-27 14:02 67.68549 32.76989 13280 ft 253 kts
2026-04-27 14:02 67.70293 32.76956 12992 ft 251 kts
2026-04-27 14:02 67.72029 32.76918 12705 ft 249 kts
2026-04-27 14:02 67.73759 32.76877 12418 ft 247 kts
2026-04-27 14:03 67.75470 32.76834 12134 ft 245 kts
2026-04-27 14:03 67.77165 32.76791 11852 ft 244 kts
2026-04-27 14:03 67.78852 32.76747 11571 ft 242 kts
2026-04-27 14:03 67.80528 32.76703 11291 ft 240 kts
2026-04-27 14:04 67.82190 32.76659 11013 ft 238 kts
2026-04-27 14:04 67.83843 32.76615 10737 ft 237 kts
2026-04-27 14:04 67.84722 32.76597 10589 ft 236 kts
2026-04-27 14:04 67.87104 32.76562 10189 ft 233 kts
2026-04-27 14:05 67.88718 32.76524 9916 ft 231 kts
2026-04-27 14:05 67.90316 32.76484 9646 ft 230 kts
2026-04-27 14:05 67.91905 32.76456 9378 ft 228 kts
2026-04-27 14:05 67.93490 32.76432 9107 ft 226 kts
2026-04-27 14:06 67.95063 32.76403 8833 ft 225 kts
2026-04-27 14:06 67.96593 32.77024 8458 ft 228 kts 20°
2026-04-27 14:06 67.97884 32.79496 8052 ft 234 kts 43°
2026-04-27 14:06 67.98866 32.82982 7772 ft 235 kts 53°
2026-04-27 14:07 67.99695 32.86744 7517 ft 234 kts 57°
2026-04-27 14:07 68.00447 32.90555 7264 ft 233 kts 58°
2026-04-27 14:07 68.01176 32.94393 7000 ft 231 kts 59°
2026-04-27 14:07 68.01894 32.98225 6748 ft 230 kts 59°
2026-04-27 14:08 68.02594 33.02046 6480 ft 230 kts 60°
2026-04-27 14:08 68.03282 33.05881 6222 ft 229 kts 60°
2026-04-27 14:08 68.03965 33.09731 5938 ft 228 kts 60°
2026-04-27 14:08 68.04642 33.13551 5674 ft 228 kts 60°
2026-04-27 14:09 68.05316 33.17368 5420 ft 227 kts 60°
2026-04-27 14:09 68.05990 33.21198 5136 ft 227 kts 60°
2026-04-27 14:09 68.06662 33.25020 4864 ft 227 kts 60°
2026-04-27 14:09 68.07229 33.28252 4651 ft 226 kts 60°
2026-04-27 14:10 68.07988 33.32649 4337 ft 226 kts 61°
2026-04-27 14:10 68.08718 33.36335 4044 ft 224 kts 53°
2026-04-27 14:10 68.09709 33.39468 3810 ft 218 kts 39°
2026-04-27 14:10 68.10914 33.41883 3577 ft 214 kts 29°
2026-04-27 14:11 68.12199 33.43708 3428 ft 207 kts 21°
2026-04-27 14:11 68.13519 33.45092 3303 ft 199 kts 18°
2026-04-27 14:11 68.14825 33.46248 3110 ft 197 kts 16°
2026-04-27 14:11 68.16104 33.47361 2993 ft 190 kts 14°
2026-04-27 14:12 68.17302 33.48313 3167 ft 166 kts 15°
2026-04-27 14:12 68.17990 33.48954 3309 ft 150 kts 18°
2026-04-27 14:12 68.19045 33.50019 3341 ft 181 kts 18°
2026-04-27 14:12 68.20341 33.51284 3351 ft 210 kts 18°
2026-04-27 14:13 68.21725 33.52593 3193 ft 210 kts 17°
2026-04-27 14:13 68.23098 33.53809 3080 ft 206 kts 17°
2026-04-27 14:13 68.24431 33.55099 2972 ft 202 kts 18°
2026-04-27 14:13 68.25751 33.56053 2876 ft 195 kts
2026-04-27 14:14 68.27050 33.55554 2876 ft 188 kts 341°
2026-04-27 14:14 68.28156 33.53637 2833 ft 193 kts 320°
2026-04-27 14:14 68.28937 33.50680 2831 ft 197 kts 300°
2026-04-27 14:14 68.29243 33.47024 2836 ft 207 kts 277°
2026-04-27 14:15 68.28982 33.43136 2831 ft 217 kts 253°
2026-04-27 14:15 68.28105 33.39786 2828 ft 224 kts 226°
2026-04-27 14:15 68.26747 33.37681 2860 ft 227 kts 206°
2026-04-27 14:15 68.25274 33.36088 2855 ft 231 kts 202°
2026-04-27 14:16 68.23740 33.34660 2855 ft 236 kts 200°
2026-04-27 14:16 68.22147 33.33458 2860 ft 240 kts 197°
2026-04-27 14:16 68.20507 33.32480 2862 ft 242 kts 195°
2026-04-27 14:16 68.18880 33.31291 2859 ft 245 kts 200°
2026-04-27 14:17 68.17267 33.29771 2862 ft 247 kts 204°
2026-04-27 14:17 68.15649 33.28114 2873 ft 251 kts 203°
2026-04-27 14:17 68.14298 33.26737 2864 ft 254 kts 203°
2026-04-27 14:17 68.12343 33.24811 2863 ft 255 kts 202°
2026-04-27 14:18 68.10679 33.23286 2853 ft 250 kts 201°
2026-04-27 14:18 68.09062 33.21680 2850 ft 246 kts 204°
2026-04-27 14:18 68.07477 33.20099 2847 ft 241 kts 203°
2026-04-27 14:18 68.05911 33.18653 2847 ft 237 kts 201°
2026-04-27 14:19 68.04354 33.17317 2848 ft 233 kts 201°
2026-04-27 14:19 68.02822 33.15925 2854 ft 232 kts 202°
2026-04-27 14:19 68.01316 33.14505 2854 ft 229 kts 203°
2026-04-27 14:19 67.99830 33.13061 2853 ft 226 kts 204°
2026-04-27 14:20 67.98353 33.11692 2855 ft 224 kts 199°
2026-04-27 14:20 67.96802 33.11252 2855 ft 226 kts 177°
2026-04-27 14:20 67.95268 33.12231 2865 ft 232 kts 156°
2026-04-27 14:20 67.93878 33.14479 2877 ft 237 kts 136°
2026-04-27 14:21 67.92804 33.17822 2885 ft 240 kts 117°
2026-04-27 14:21 67.92146 33.21892 2878 ft 241 kts 98°
2026-04-27 14:21 67.92009 33.26283 2883 ft 240 kts 80°
2026-04-27 14:21 67.92373 33.30540 2882 ft 236 kts 64°
2026-04-27 14:22 67.93191 33.34185 2865 ft 223 kts 45°
2026-04-27 14:22 67.94350 33.36638 2862 ft 206 kts 26°
2026-04-27 14:22 67.95612 33.38169 2860 ft 195 kts 18°
2026-04-27 14:22 67.96862 33.39495 2860 ft 193 kts 18°
2026-04-27 14:23 67.98104 33.40799 2865 ft 190 kts 18°
2026-04-27 14:23 67.99333 33.42030 2864 ft 189 kts 17°
2026-04-27 14:23 68.00565 33.43165 2863 ft 186 kts 15°
2026-04-27 14:23 68.01783 33.44260 2859 ft 184 kts 16°
2026-04-27 14:24 68.02919 33.45271 2857 ft 181 kts 14°
2026-04-27 14:24 68.04183 33.46272 2855 ft 179 kts 14°
2026-04-27 14:24 68.04369 33.46429 2854 ft 179 kts 14°
2026-04-27 14:26 68.05187 33.47155 2854 ft 176 kts 15°
2026-04-27 14:26 68.06335 33.48215 2837 ft 172 kts
2026-04-27 14:26 68.07503 33.47898 2843 ft 170 kts 344°
2026-04-27 14:27 68.08597 33.46711 2869 ft 173 kts 337°
2026-04-27 14:27 68.09701 33.45332 2874 ft 177 kts 336°
2026-04-27 14:27 68.10826 33.43894 2877 ft 182 kts 335°
2026-04-27 14:27 68.11989 33.42403 2875 ft 188 kts 335°
2026-04-27 14:28 68.13184 33.40857 2873 ft 193 kts 336°
2026-04-27 14:28 68.14397 33.39296 2873 ft 194 kts 335°
2026-04-27 14:28 68.15617 33.37727 2865 ft 195 kts 334°
2026-04-27 14:28 68.16604 33.35242 2833 ft 199 kts 306°
2026-04-27 14:29 68.16750 33.34471 2835 ft 201 kts 298°
2026-04-27 14:29 68.16864 33.33594 2836 ft 202 kts 290°
2026-04-27 14:29 68.16852 33.29807 2843 ft 210 kts 261°
2026-04-27 14:29 68.16093 33.26425 2849 ft 218 kts 231°
2026-04-27 14:30 68.14836 33.24458 2848 ft 224 kts 200°
2026-04-27 14:30 68.14245 33.24144 2847 ft 225 kts 188°
2026-04-27 14:30 68.13708 33.24074 2857 ft 224 kts 181°
2026-04-27 14:30 68.13415 33.24098 2861 ft 224 kts 178°
2026-04-27 14:31 68.11846 33.24725 2866 ft 223 kts 167°
2026-04-27 14:31 68.10373 33.25926 2863 ft 221 kts 156°
2026-04-27 14:31 68.09707 33.26671 2868 ft 220 kts 154°
2026-04-27 14:31 68.08359 33.28589 2843 ft 219 kts 141°
2026-04-27 14:32 68.07466 33.31697 2835 ft 207 kts 107°
2026-04-27 14:32 68.07305 33.35340 2831 ft 191 kts 73°
2026-04-27 14:32 68.07865 33.38385 2858 ft 180 kts 44°
2026-04-27 14:32 68.08801 33.40576 2887 ft 181 kts 30°
2026-04-27 14:33 68.09904 33.42169 2880 ft 178 kts 19°
2026-04-27 14:33 68.11070 33.42995 2836 ft 171 kts 358°
2026-04-27 14:33 68.12149 33.41932 2835 ft 169 kts 325°
2026-04-27 14:33 68.12766 33.39266 2844 ft 175 kts 290°
2026-04-27 14:34 68.12668 33.35947 2846 ft 188 kts 256°
2026-04-27 14:34 68.11848 33.33104 2864 ft 201 kts 225°
2026-04-27 14:34 68.10671 33.30993 2898 ft 207 kts 216°
2026-04-27 14:34 68.09399 33.29068 2891 ft 214 kts 213°
2026-04-27 14:35 68.08074 33.27113 2891 ft 221 kts 213°
2026-04-27 14:35 68.07519 33.26308 2888 ft 224 kts 213°
2026-04-27 14:35 68.06264 33.24504 2885 ft 230 kts 212°
2026-04-27 14:35 68.05460 33.23339 2883 ft 234 kts 212°
2026-04-27 14:36 68.05155 33.22894 2879 ft 236 kts 212°
2026-04-27 14:36 68.03828 33.21228 2855 ft 246 kts 200°
2026-04-27 14:36 68.02120 33.20918 2849 ft 252 kts 172°
2026-04-27 14:36 68.01201 33.21611 2854 ft 252 kts 155°
2026-04-27 14:37 67.99796 33.24277 2863 ft 248 kts 128°
2026-04-27 14:37 67.98988 33.28227 2867 ft 242 kts 101°
2026-04-27 14:37 67.98931 33.32581 2870 ft 233 kts 73°
2026-04-27 14:37 67.99603 33.36356 2873 ft 225 kts 46°
2026-04-27 14:38 68.00814 33.38731 2870 ft 212 kts 20°
2026-04-27 14:38 68.01778 33.39544 2885 ft 207 kts 11°
2026-04-27 14:38 68.02654 33.39984 2883 ft 204 kts
2026-04-27 14:39 68.02896 33.40077 2882 ft 203 kts
2026-04-27 14:39 68.03657 33.40322 2878 ft 201 kts
2026-04-27 14:39 68.04677 33.40571 2868 ft 199 kts
2026-04-27 14:39 68.06041 33.40835 2864 ft 195 kts
2026-04-27 14:40 68.07388 33.41136 2857 ft 192 kts
2026-04-27 14:40 68.08696 33.41733 2855 ft 191 kts
2026-04-27 14:40 68.09994 33.42453 2856 ft 189 kts
2026-04-27 14:40 68.11275 33.43196 2857 ft 188 kts 10°
2026-04-27 14:41 68.12519 33.44201 2850 ft 185 kts 15°
2026-04-27 14:41 68.13708 33.45380 2851 ft 180 kts 17°
2026-04-27 14:41 68.14859 33.46545 2846 ft 174 kts 15°
2026-04-27 14:41 68.15982 33.47583 2843 ft 168 kts 14°
2026-04-27 14:42 68.17063 33.48623 2841 ft 163 kts 17°
2026-04-27 14:42 68.18112 33.49788 2848 ft 164 kts 19°
2026-04-27 14:42 68.19189 33.50833 2852 ft 167 kts 11°
2026-04-27 14:42 68.20345 33.50907 2849 ft 169 kts 349°
2026-04-27 14:43 68.21414 33.49530 2852 ft 176 kts 325°
2026-04-27 14:43 68.22159 33.46843 2858 ft 186 kts 298°
2026-04-27 14:43 68.22371 33.43332 2853 ft 199 kts 272°
2026-04-27 14:43 68.21902 33.39756 2843 ft 212 kts 240°
2026-04-27 14:44 68.20801 33.37017 2873 ft 221 kts 219°
2026-04-27 14:44 68.19413 33.35056 2884 ft 229 kts 208°
2026-04-27 14:44 68.17945 33.33356 2880 ft 232 kts 207°
2026-04-27 14:44 68.16472 33.31654 2869 ft 230 kts 206°
2026-04-27 14:45 68.14994 33.30005 2864 ft 228 kts 206°
2026-04-27 14:45 68.13523 33.28441 2859 ft 227 kts 205°
2026-04-27 14:45 68.12055 33.26986 2855 ft 225 kts 202°
2026-04-27 14:45 68.10570 33.25716 2849 ft 225 kts 195°
2026-04-27 14:46 68.09003 33.25464 2853 ft 228 kts 175°
2026-04-27 14:46 68.07495 33.26675 2834 ft 227 kts 147°
2026-04-27 14:46 68.06434 33.29590 2829 ft 217 kts 115°
2026-04-27 14:46 68.06136 33.33361 2838 ft 202 kts 79°
2026-04-27 14:47 68.06632 33.36635 2864 ft 186 kts 46°
2026-04-27 14:47 68.07560 33.38914 2876 ft 179 kts 29°
2026-04-27 14:47 68.08643 33.40473 2871 ft 176 kts 18°
2026-04-27 14:47 68.09806 33.41492 2881 ft 176 kts 15°
2026-04-27 14:48 68.10954 33.42699 2873 ft 178 kts 17°
2026-04-27 14:48 68.13276 33.45252 2866 ft 182 kts 18°
2026-04-27 14:48 68.14464 33.46444 2877 ft 181 kts 15°
2026-04-27 14:49 68.15627 33.47367 2913 ft 163 kts 12°
2026-04-27 14:49 68.16634 33.48251 2894 ft 147 kts 15°
2026-04-27 14:49 68.17583 33.49134 2873 ft 144 kts 14°
2026-04-27 14:49 68.18527 33.50085 2879 ft 147 kts 18°
2026-04-27 14:50 68.19472 33.51171 2862 ft 148 kts 18°
2026-04-27 14:50 68.20422 33.52035 2849 ft 145 kts
2026-04-27 14:50 68.21407 33.51812 2834 ft 141 kts 345°
2026-04-27 14:50 68.22194 33.50261 2840 ft 144 kts 316°
2026-04-27 14:51 68.22590 33.47744 2845 ft 149 kts 291°
2026-04-27 14:51 68.22592 33.44923 2850 ft 156 kts 272°
2026-04-27 14:51 68.22241 33.42086 2853 ft 164 kts 253°
2026-04-27 14:51 68.21816 33.40367 2850 ft 169 kts 240°
2026-04-27 14:52 68.20710 33.37307 2861 ft 174 kts 228°
2026-04-27 14:52 68.19738 33.35349 2867 ft 177 kts 220°
2026-04-27 14:52 68.18667 33.33658 2863 ft 180 kts 214°
2026-04-27 14:52 68.17531 33.32183 2868 ft 182 kts 209°
2026-04-27 14:53 68.16353 33.30874 2869 ft 184 kts 206°
2026-04-27 14:53 68.15148 33.29715 2873 ft 186 kts 202°
2026-04-27 14:53 68.13917 33.28613 2873 ft 187 kts 203°
2026-04-27 14:53 68.12685 33.27458 2867 ft 188 kts 204°
2026-04-27 14:54 68.11463 33.26233 2870 ft 188 kts 205°
2026-04-27 14:54 68.10244 33.24987 2861 ft 189 kts 203°
2026-04-27 14:54 68.08950 33.24239 2844 ft 192 kts 188°
2026-04-27 14:54 68.07625 33.24546 2840 ft 192 kts 166°
2026-04-27 14:55 68.06445 33.26067 2829 ft 189 kts 142°
2026-04-27 14:55 68.05598 33.28613 2851 ft 179 kts 116°
2026-04-27 14:55 68.05334 33.31707 2836 ft 165 kts 82°
2026-04-27 14:55 68.05617 33.34554 2859 ft 155 kts 59°
2026-04-27 14:56 68.06246 33.36762 2869 ft 147 kts 37°
2026-04-27 14:56 68.07107 33.38106 2884 ft 143 kts 22°
2026-04-27 14:56 68.07995 33.39353 2882 ft 145 kts 22°
2026-04-27 14:56 68.08914 33.40509 2877 ft 146 kts 19°
2026-04-27 14:57 68.09859 33.41538 2874 ft 148 kts 18°
2026-04-27 14:57 68.10826 33.42472 2874 ft 149 kts 15°
2026-04-27 14:57 68.11793 33.43512 2873 ft 151 kts 19°
2026-04-27 14:57 68.12770 33.44562 2868 ft 152 kts 17°
2026-04-27 14:58 68.13775 33.45437 2870 ft 152 kts 14°
2026-04-27 14:58 68.14776 33.46362 2868 ft 153 kts 16°
2026-04-27 14:58 68.15447 33.47066 2864 ft 155 kts 17°
2026-04-27 14:58 68.16779 33.48449 2868 ft 154 kts 17°
2026-04-27 14:59 68.17784 33.49453 2856 ft 154 kts 16°
2026-04-27 14:59 68.18787 33.50443 2862 ft 154 kts 16°
2026-04-27 14:59 68.19797 33.51413 2863 ft 154 kts 16°
2026-04-27 14:59 68.20810 33.52376 2858 ft 155 kts 15°
2026-04-27 15:00 68.21817 33.53401 2857 ft 155 kts 17°
2026-04-27 15:00 68.22825 33.54437 2857 ft 156 kts 16°
2026-04-27 15:00 68.23838 33.55464 2856 ft 156 kts 16°
2026-04-27 15:00 68.24891 33.55840 2810 ft 154 kts 353°
2026-04-27 15:01 68.25781 33.54327 2814 ft 156 kts 317°
2026-04-27 15:01 68.26142 33.51558 2858 ft 160 kts 288°
2026-04-27 15:01 68.26371 33.48675 2889 ft 156 kts 292°
2026-04-27 15:01 68.26640 33.45814 2878 ft 159 kts 291°
2026-04-27 15:02 68.26870 33.42903 2862 ft 160 kts 291°
2026-04-27 15:02 68.27114 33.39975 2857 ft 160 kts 292°
2026-04-27 15:02 68.27395 33.37059 2857 ft 160 kts 293°
2026-04-27 15:02 68.27667 33.34140 2859 ft 161 kts 292°
2026-04-27 15:03 68.27896 33.31172 2855 ft 162 kts 289°
2026-04-27 15:03 68.28158 33.28255 2854 ft 160 kts 293°
2026-04-27 15:03 68.28368 33.25275 2810 ft 169 kts 279°
2026-04-27 15:03 68.27947 33.22205 2812 ft 186 kts 243°
2026-04-27 15:04 68.26848 33.20248 2823 ft 194 kts 207°
2026-04-27 15:04 68.25639 33.18776 2884 ft 191 kts 212°
2026-04-27 15:04 68.24417 33.17315 2872 ft 194 kts 208°
2026-04-27 15:04 68.23153 33.15999 2860 ft 196 kts 204°
2026-04-27 15:05 68.21862 33.14815 2864 ft 197 kts 201°
2026-04-27 15:05 68.20566 33.13640 2860 ft 198 kts 204°
2026-04-27 15:05 68.19285 33.12330 2864 ft 197 kts 205°
2026-04-27 15:05 68.17995 33.11041 2872 ft 198 kts 204°
2026-04-27 15:06 68.16697 33.09790 2870 ft 199 kts 204°
2026-04-27 15:06 68.16297 33.09393 2863 ft 199 kts 205°
2026-04-27 15:06 68.14127 33.07091 2853 ft 197 kts 206°
2026-04-27 15:06 68.13293 33.06129 2842 ft 194 kts 208°
2026-04-27 15:07 68.12066 33.04747 2846 ft 191 kts 207°
2026-04-27 15:07 68.10840 33.03458 2847 ft 188 kts 205°
2026-04-27 15:07 68.09631 33.02149 2850 ft 186 kts 207°
2026-04-27 15:07 68.08448 33.00803 2847 ft 184 kts 208°
2026-04-27 15:08 68.07257 32.99612 2851 ft 183 kts 205°
2026-04-27 15:08 68.06061 32.98457 2849 ft 184 kts 202°
2026-04-27 15:08 68.04787 32.98455 2811 ft 184 kts 165°
2026-04-27 15:08 68.03776 33.00289 2815 ft 173 kts 125°
2026-04-27 15:09 68.03198 33.02987 2881 ft 166 kts 108°
2026-04-27 15:09 68.02672 33.05803 2885 ft 174 kts 110°
2026-04-27 15:09 68.02073 33.08686 2896 ft 181 kts 110°
2026-04-27 15:09 68.01460 33.11650 2897 ft 185 kts 111°
2026-04-27 15:10 68.00815 33.14631 2886 ft 186 kts 112°
2026-04-27 15:10 68.00237 33.17706 2879 ft 185 kts 107°
2026-04-27 15:10 67.99671 33.20796 2876 ft 186 kts 109°
2026-04-27 15:10 67.99075 33.23827 2859 ft 182 kts 105°
2026-04-27 15:11 67.98886 33.26994 2840 ft 168 kts 80°
2026-04-27 15:11 67.99238 33.29744 2826 ft 152 kts 52°
2026-04-27 15:11 67.99929 33.31565 2848 ft 143 kts 32°
2026-04-27 15:11 68.00802 33.32987 2852 ft 138 kts 21°
2026-04-27 15:12 68.01700 33.33845 2827 ft 138 kts 14°
2026-04-27 15:12 68.02615 33.34654 2870 ft 139 kts 14°
2026-04-27 15:12 68.03522 33.35550 2868 ft 141 kts 16°
2026-04-27 15:12 68.04443 33.36415 2723 ft 138 kts 15°
2026-04-27 15:13 68.05327 33.37181 2574 ft 124 kts 14°
2026-04-27 15:13 68.06099 33.37872 2359 ft 124 kts 14°
2026-04-27 15:13 68.06960 33.38717 2120 ft 128 kts 15°
2026-04-27 15:13 68.07780 33.39540 1951 ft 125 kts 16°
2026-04-27 15:14 68.08591 33.40321 1774 ft 124 kts 15°
2026-04-27 15:14 68.09406 33.41037 1622 ft 122 kts 14°
2026-04-27 15:14 68.10207 33.41772 1521 ft 123 kts 15°
2026-04-27 15:14 68.11016 33.42599 1349 ft 125 kts 17°
2026-04-27 15:15 68.11832 33.43356 1141 ft 123 kts 15°
2026-04-27 15:15 68.12635 33.44089 988 ft 123 kts 15°
2026-04-27 15:15 68.13443 33.44854 822 ft 122 kts 16°
2026-04-27 15:15 68.14223 33.45594 713 ft 114 kts 17°
2026-04-27 15:16 68.14857 33.46195 700 ft 77 kts 17°
2026-04-27 15:16 68.15246 33.46573 700 ft 44 kts 19°
2026-04-27 15:16 68.15502 33.46822 700 ft 35 kts 18°
2026-04-27 15:16 68.15677 33.46988 700 ft 20 kts 18°
2026-04-27 15:17 68.15699 33.47009 700 ft 20 kts 20°
2026-04-27 15:19 68.15782 33.47088 700 ft 19 kts 19°
2026-04-27 15:19 68.15894 33.47194 700 ft 15 kts 19°
2026-04-27 15:19 68.15992 33.47188 700 ft 14 kts 320°
2026-04-27 15:20 68.16050 33.46991 700 ft 14 kts 307°
2026-04-27 15:20 68.16088 33.46815 700 ft 9 kts 270°
2026-04-27 15:20 68.16044 33.46697 700 ft 10 kts 205°
2026-04-27 15:20 68.15971 33.46628 700 ft 12 kts 198°
2026-04-27 15:21 68.15886 33.46548 700 ft 14 kts 199°
2026-04-27 15:21 68.15788 33.46454 700 ft 16 kts 200°
2026-04-27 15:21 68.15680 33.46346 700 ft 18 kts 200°
2026-04-27 15:21 68.15560 33.46231 700 ft 19 kts 199°
2026-04-27 15:22 68.15428 33.46108 700 ft 21 kts 199°
2026-04-27 15:22 68.15288 33.45976 700 ft 22 kts 199°
2026-04-27 15:22 68.15145 33.45842 700 ft 20 kts 199°
2026-04-27 15:22 68.15008 33.45709 700 ft 22 kts 200°
2026-04-27 15:23 68.14862 33.45562 700 ft 23 kts 201°
2026-04-27 15:23 68.14706 33.45422 700 ft 24 kts 199°
2026-04-27 15:23 68.14582 33.45304 700 ft 14 kts 200°
2026-04-27 15:23 68.14526 33.45160 700 ft 12 kts 262°
2026-04-27 15:24 68.14516 33.45008 700 ft 6 kts 243°
2026-04-27 15:24 68.14484 33.44978 700 ft 5 kts 159°
2026-04-27 15:24 68.14468 33.44962 700 ft 3 kts 210°
2026-04-27 15:24 68.14446 33.44960 700 ft 2 kts 154°
2026-04-27 15:25 68.14442 33.44981 700 ft 1 kts 108°
2026-04-27 15:25 68.14442 33.45003 700 ft 0 kts 89°
2026-04-27 15:25 68.14442 33.45004 700 ft 0 kts 89°
2026-04-27 15:26 68.14442 33.45005 700 ft 0 kts 89°
2026-04-27 15:27 68.14442 33.45006 700 ft 0 kts 89°